Weather in Vlasovo

Russia / Sakha (Yakutia) Republic     70°44′38″N   134°48′03″E
temp.,
°C
wind,
m/s
gust,
m/s
humid.,
%
clouds,
%
prec.,
mm/h
press.,
hPa
HPBL,
m
27 february, sat
sat2701:00−35sse119317 0.0 103319
04:00−34se119157 0.0 103219
07:00−34ese1191100 0.0 103219
10:00−35se119393 0.0 103219
13:00−33sse119143 0.0 103119
16:00−34sw119144 0.0 103019
19:00−36sse119460 0.0 103019
22:00−35s119069 0.0 103019
28 february, sun
sun2801:00−35sse119075 0.0 102919
04:00−35se119182 0.0 102819
07:00−36ese119465 0.0 102719
10:00−35e119365 0.0 102719
13:00−34e119248 0.0 102619
16:00−35e119431 0.0 102619
19:00−37e119918 0.0 102619
22:00−38ese0110022 0.0 102719
1 march, mon
mon101:00−38nw0010045 0.0 102619
04:00−38wsw0110051 0.0 102619
07:00−39w1110079 0.0 102619
10:00−38w119874 0.0 102619
13:00−36w119461 0.0 102619
16:00−38wnw019565 0.0 102619
19:00−40wsw119971 0.0 102619
22:00−40wsw019955 0.0 102718
2 march, tue
tue201:00−40wsw119920 0.0 102718
04:00−40wnw1110018 0.0 102718
07:00−41sw009927 0.0 102818
10:00−40wsw009641 0.0 102818
13:00−37ene009472 0.0 102821
16:00−38ene119676 0.0 102819
19:00−40e1110094 0.0 102918
22:00−38ese119794 0.0 103019
3 march, wed
wed301:00−39e119998 0.0 103018
04:00−40ene0010098 0.0 102918
07:00−40ene0110082 0.0 102918
10:00−40ne1110089 0.0 102918
13:00−38ne119895 0.0 102819
16:00−38nne1110090 0.0 102818
19:00−39n11100100 0.0 102818
22:00−39n12100100 0.0 102818